User: anonymous   Login
Location: Unspecified
(0.0000°N, 0.0000°E)
Time: 17:17:30
(UTC+00:00)
Language:

DEIMOS 2 - Orbit

View from above orbital plane
View from above orbital plane
View from above satellite
View from above satellite

Ground track
Ground track

The orbit data is extracted from the following two-line orbital elements,

1 40013U 14033D   21337.10013693  .00000411  00000-0  54332-4 0  9995
2 40013  97.7747 234.0571 0002459  61.4083 298.7392 14.84956174404057
Epoch (UTC): 03 December 2021 02:24:11
Eccentricity: 0.0002459
inclination: 97.7747°
perigee height: 612 km
apogee height: 615 km
right ascension of ascending node: 234.0571°
argument of perigee: 61.4083°
revolutions per day: 14.84956174
mean anomaly at epoch: 298.7392°
orbit number at epoch: 40405

The dashed part of the orbit path shows where the satellite is in the earth's shadow,  

DLR